Waarnemingen

Advertentie
Mijn weer
Haparanda A, Zweden (2197): temperatuur & dauwpunt: 28.07.2020 14:00:00 - 03.08.2020 14:00:00 (CEST)Haparanda A, Zweden (2197): windsnelheid & windstoten: 28.07.2020 14:00:00 - 03.08.2020 14:00:00 (CEST)Haparanda A, Zweden (2197): windrichting: 28.07.2020 14:00:00 - 03.08.2020 14:00:00 (CEST)Haparanda A, Zweden (2197): luchtdruk: 28.07.2020 14:00:00 - 03.08.2020 14:00:00 (CEST)Haparanda A, Zweden (2197): zicht: 28.07.2020 14:00:00 - 03.08.2020 14:00:00 (CEST)Haparanda A, Zweden (2197): neerslag: 28.07.2020 14:00:00 - 03.08.2020 14:00:00 (CEST)
Datum & Tijd tt [°C] td [°C] ff [km/u] ff [kn] fx [km/u] fx [kn] dd ppp [hPa] vv [km] rr [mm]
03.08.2020 14:00:00 19,8 9,5 8 4 18 10 ZW 1004,2 44 0,0
03.08.2020 13:00:00 20,2 9,7 7 4 16 8 ZZW 1004,3 39 0,0
03.08.2020 12:00:00 17,7 11,7 4 2 14 8 Z 1004,6 35 0,0
03.08.2020 11:00:00 19,5 9,4 6 3 14 8 O 1004,7 12 0,0
03.08.2020 10:00:00 19,0 11,3 5 3 12 7 NNO 1004,9 14 0,0
03.08.2020 09:00:00 17,1 12,0 6 3 13 7 NNO 1005,4 14 0,0
03.08.2020 08:00:00 14,4 11,4 6 3 12 7 NNO 1005,8 34 0,0
03.08.2020 07:00:00 11,7 11,1 5 3 13 7 NNO 1006,2 39 0,0
03.08.2020 06:00:00 9,7 9,6 6 3 13 7 NNO 1006,2 34 0,0
03.08.2020 05:00:00 8,1 8,0 4 2 10 5 NNO 1006,5 16 0,0
03.08.2020 04:00:00 7,4 7,3 5 3 9 5 N 1006,8 - 0,0
03.08.2020 03:00:00 7,8 7,7 4 2 11 6 NNO 1007,0 10 0,0
03.08.2020 02:00:00 8,6 8,5 5 3 13 7 NNO 1007,3 12 0,0
03.08.2020 01:00:00 8,8 8,5 5 3 13 7 NNO 1007,6 12 0,0
03.08.2020 00:00:00 9,0 8,7 5 3 13 7 NNO 1007,6 13 0,0
02.08.2020 23:00:00 9,8 9,3 5 3 9 5 N 1007,6 14 0,0
02.08.2020 22:00:00 10,8 10,2 3 2 10 5 N 1008,0 16 0,0
02.08.2020 21:00:00 12,3 10,5 5 3 15 8 NNO 1008,0 40 0,0
02.08.2020 20:00:00 14,7 10,9 6 3 17 9 NNO 1008,2 44 0,0
02.08.2020 19:00:00 15,7 10,2 9 5 23 13 NO 1008,5 49 0,0
02.08.2020 18:00:00 16,6 10,0 12 6 24 13 NNO 1008,5 45 0,0
02.08.2020 17:00:00 18,3 11,4 5 3 19 10 N 1008,7 39 0,0
02.08.2020 16:00:00 18,2 11,5 9 5 19 10 N 1009,0 46 0,0
02.08.2020 15:00:00 18,8 11,4 8 4 22 12 NNO 1009,4 37 0,0
02.08.2020 14:00:00 19,4 10,9 8 4 25 13 ONO 1009,5 43 0,0
02.08.2020 13:00:00 17,8 11,4 10 5 22 12 NNO 1009,8 37 0,0
02.08.2020 12:00:00 20,8 11,7 6 3 21 11 O 1009,9 41 0,0
02.08.2020 11:00:00 19,2 12,5 8 4 18 10 NNO 1010,4 30 0,0
02.08.2020 10:00:00 18,1 13,2 7 4 16 8 NO 1010,8 25 0,0
02.08.2020 09:00:00 16,1 13,2 5 3 15 8 ONO 1011,0 35 0,0
02.08.2020 08:00:00 13,1 12,9 10 5 22 12 NO 1011,3 6 0,0
02.08.2020 07:00:00 13,1 12,9 8 4 20 11 N 1011,3 3,8 0,0
02.08.2020 06:00:00 12,8 12,6 3 2 11 6 NNO 1011,3 0,7 0,0
02.08.2020 05:00:00 12,4 12,2 6 3 11 6 NNO 1011,4 0,8 0,0
02.08.2020 04:00:00 12,4 12,2 5 3 10 5 NO 1011,6 1,7 0,0
02.08.2020 03:00:00 11,7 11,5 3 1 7 4 NO 1011,7 0,3 0,0
02.08.2020 02:00:00 9,9 9,7 4 2 7 4 N 1012,0 4,7 0,0
02.08.2020 01:00:00 10,3 10,1 2 1 5 3 ONO 1012,3 7 0,0
02.08.2020 00:00:00 10,9 10,6 3 2 6 3 N 1012,5 7 0,0
01.08.2020 23:00:00 11,9 11,6 3 2 5 3 NNO 1012,6 6 0,0
01.08.2020 22:00:00 13,0 12,5 4 2 8 4 ONO 1012,6 12 0,0
01.08.2020 21:00:00 14,2 13,2 5 3 16 9 Z 1012,6 47 0,0
01.08.2020 20:00:00 15,0 13,9 3 1 16 9 Z 1013,2 32 0,0
01.08.2020 19:00:00 16,1 14,6 7 4 19 10 OZO 1013,3 43 0,1
01.08.2020 18:00:00 16,9 15,2 4 2 14 8 OZO 1013,7 48 0,0
01.08.2020 17:00:00 17,2 14,8 4 2 18 10 Z 1013,7 47 0,0
01.08.2020 16:00:00 19,8 14,8 11 6 18 10 ZZW 1013,7 31 0,0
01.08.2020 15:00:00 18,8 14,9 8 4 18 10 ZZW 1014,1 45 0,0
01.08.2020 14:00:00 19,9 16,3 9 5 21 11 ZZW 1014,6 40 0,0
01.08.2020 13:00:00 17,1 15,1 9 5 19 10 ZZW 1014,9 13 0,0
01.08.2020 12:00:00 19,3 14,3 8 5 19 10 ZZW 1015,2 50 0,0
01.08.2020 11:00:00 20,5 13,9 8 4 21 11 ZW 1015,4 36 0,0
01.08.2020 10:00:00 17,7 13,6 8 4 18 10 ZZW 1015,5 39 0,0
01.08.2020 09:00:00 19,4 12,7 7 4 14 8 ZZW 1015,7 13 0,0
01.08.2020 08:00:00 18,7 14,8 5 3 10 6 ZW 1015,8 17 0,0
01.08.2020 07:00:00 15,9 15,7 3 2 6 3 ZZW 1015,9 43 0,0
01.08.2020 06:00:00 10,9 10,7 0 0 4 2 N 1016,4 31 0,0
01.08.2020 05:00:00 8,6 8,5 3 1 5 3 NNW 1016,5 13 0,0
01.08.2020 04:00:00 7,5 7,3 3 2 5 3 NNW 1016,6 15 0,0
01.08.2020 03:00:00 7,6 7,3 2 1 3 2 N 1016,9 17 0,0
01.08.2020 02:00:00 8,2 7,9 0 0 4 2 N 1017,1 13 0,0
01.08.2020 01:00:00 9,4 8,9 2 1 8 4 ZW 1016,8 20 0,0
01.08.2020 00:00:00 10,6 10,1 5 3 11 6 ZZO 1016,6 32 0,0
31.07.2020 23:00:00 10,4 9,8 3 2 5 3 NO 1016,2 22 0,0
31.07.2020 22:00:00 11,5 10,6 3 2 5 3 NNW 1016,1 50 0,0
31.07.2020 21:00:00 13,2 10,9 4 2 12 6 NNW 1015,9 50 0,0
31.07.2020 20:00:00 15,3 10,9 6 3 18 10 N 1015,6 50 0,0
31.07.2020 19:00:00 16,9 11,0 7 4 19 10 NNO 1015,5 50 0,0
31.07.2020 18:00:00 17,7 10,3 10 5 23 12 N 1015,3 50 0,0
31.07.2020 17:00:00 19,0 10,3 8 4 23 12 N 1015,2 46 0,0
31.07.2020 16:00:00 20,1 9,9 8 4 - - N 1015,0 41 0,0
31.07.2020 15:00:00 20,7 10,8 8 4 22 12 N 1014,8 42 0,0
31.07.2020 14:00:00 20,6 11,0 9 5 22 12 N 1015,0 38 0,0
31.07.2020 13:00:00 19,8 10,8 8 4 25 13 N 1014,9 41 0,0
31.07.2020 12:00:00 18,7 10,5 10 5 23 13 N 1014,7 22 0,0
31.07.2020 11:00:00 17,8 9,9 10 5 22 12 N 1014,6 13 0,0
31.07.2020 10:00:00 16,2 10,1 11 6 21 11 NNO 1014,4 12 0,0
31.07.2020 09:00:00 15,2 10,2 11 6 21 11 N 1014,1 16 0,0
31.07.2020 08:00:00 14,4 10,8 8 4 23 12 NNO 1013,7 50 0,0
31.07.2020 07:00:00 12,2 10,8 9 5 22 12 NNO 1013,4 48 0,0
31.07.2020 06:00:00 11,0 10,7 9 5 21 12 NNO 1012,8 50 0,0
31.07.2020 05:00:00 10,1 9,9 8 5 17 9 NNO 1012,3 50 0,0
31.07.2020 04:00:00 9,9 9,6 6 4 14 7 NNO 1011,7 21 0,0
31.07.2020 03:00:00 10,5 10,3 6 3 10 6 N 1011,1 - 0,0
31.07.2020 02:00:00 10,1 9,9 5 3 8 5 N 1010,7 3,4 0,0
31.07.2020 01:00:00 11,1 10,9 3 2 5 3 NNW 1010,1 1,1 0,0
31.07.2020 00:00:00 11,5 11,3 4 2 7 4 NNW 1009,8 2,4 0,0
30.07.2020 23:00:00 12,0 11,7 4 2 8 5 NNW 1009,4 1,8 0,0
30.07.2020 22:00:00 12,9 12,6 4 2 10 6 N 1008,9 2,9 0,0
30.07.2020 21:00:00 14,7 14,2 3 2 10 5 N 1008,4 4,6 0,0
30.07.2020 20:00:00 15,4 15,1 5 3 11 6 N 1008,0 8 0,0
30.07.2020 19:00:00 15,3 15,0 4 2 13 7 N 1007,5 7 0,2
30.07.2020 18:00:00 15,2 14,9 6 4 18 10 NNO 1007,3 7 0,6
30.07.2020 17:00:00 15,2 14,7 9 5 21 12 NO 1007,0 9 0,6
30.07.2020 16:00:00 15,0 14,4 8 5 27 14 NO 1006,3 16 0,1
30.07.2020 15:00:00 14,9 14,3 11 6 28 15 NO 1005,6 31 0,1
30.07.2020 14:00:00 14,8 14,3 12 6 29 16 NO 1005,1 12 0,1
30.07.2020 13:00:00 14,6 14,1 12 6 29 16 NO 1004,6 4,8 0,1
30.07.2020 12:00:00 15,0 14,4 13 7 31 17 NO 1004,0 24 0,4
30.07.2020 11:00:00 14,6 14,0 14 8 29 16 NO 1003,3 9 0,4
30.07.2020 10:00:00 14,6 13,6 16 8 37 20 NO 1002,8 7 0,1
30.07.2020 09:00:00 14,9 13,6 13 7 33 18 NO 1002,3 18 0,2
30.07.2020 08:00:00 15,8 13,3 13 7 33 18 NO 1001,7 40 0,0
30.07.2020 07:00:00 15,0 12,9 11 6 29 16 NNO 1001,5 46 0,0
30.07.2020 06:00:00 14,3 12,5 13 7 30 16 NNO 1001,4 49 0,0
30.07.2020 05:00:00 13,4 12,0 13 7 29 16 NNO 1001,6 40 0,0
30.07.2020 04:00:00 13,1 11,7 11 6 28 15 NNO 1002,0 50 0,0
30.07.2020 03:00:00 13,4 12,0 11 6 26 14 NNO 1002,3 44 0,0
30.07.2020 02:00:00 13,3 12,2 12 6 26 14 NNO 1002,7 46 0,0
30.07.2020 01:00:00 13,8 12,9 10 5 23 13 NNO 1003,0 40 0,0
30.07.2020 00:00:00 14,5 13,9 10 5 21 12 NNO 1003,3 33 0,0
29.07.2020 23:00:00 15,0 14,7 8 4 19 11 NNO 1003,7 15 0,0
29.07.2020 22:00:00 15,4 15,1 6 4 19 10 N 1004,1 6 0,0
29.07.2020 21:00:00 15,8 15,5 7 4 16 9 N 1004,4 4,2 0,0
29.07.2020 20:00:00 16,0 15,7 4 2 13 7 N 1005,0 3,4 0,7
29.07.2020 19:00:00 16,5 16,0 7 4 15 8 NO 1005,6 6 0,3
29.07.2020 18:00:00 16,8 16,3 7 4 16 9 NO 1006,0 10 0,2
29.07.2020 17:00:00 16,7 16,1 5 3 19 10 ONO 1006,2 10 0,4
29.07.2020 16:00:00 16,8 15,8 9 5 26 14 O 1006,4 20 0,1
29.07.2020 15:00:00 16,9 15,9 10 5 26 14 O 1006,7 19 0,0
29.07.2020 14:00:00 16,1 15,5 8 5 30 16 O 1007,0 18 1,5
29.07.2020 13:00:00 16,2 15,7 7 4 27 14 ONO 1007,3 7 3,0
29.07.2020 12:00:00 17,4 16,6 7 4 20 11 ONO 1007,5 17 0,1
29.07.2020 11:00:00 17,2 16,4 7 4 21 11 ONO 1007,7 14 0,3
29.07.2020 10:00:00 17,3 14,6 9 5 21 11 OZO 1007,9 18 0,0
29.07.2020 09:00:00 18,0 14,1 6 3 18 10 O 1007,5 48 0,0
29.07.2020 08:00:00 17,4 13,9 7 4 16 9 O 1007,5 46 0,0
29.07.2020 07:00:00 16,9 13,6 5 3 14 7 ONO 1007,7 44 0,0
29.07.2020 06:00:00 16,2 13,7 5 3 15 8 ONO 1007,8 49 0,0
29.07.2020 05:00:00 15,4 13,2 4 2 10 6 ONO 1008,3 50 0,0
29.07.2020 04:00:00 15,5 13,5 6 3 11 6 O 1008,7 49 0,0
29.07.2020 03:00:00 15,4 13,9 5 3 9 5 O 1009,0 49 0,0
29.07.2020 02:00:00 16,3 14,3 5 3 9 5 O 1009,1 50 0,0
29.07.2020 01:00:00 16,4 14,2 4 2 10 6 O 1009,4 48 0,0
29.07.2020 00:00:00 17,1 14,4 5 3 10 5 O 1009,9 50 0,0
28.07.2020 23:00:00 17,8 14,9 5 3 11 6 O 1010,1 50 0,0
28.07.2020 22:00:00 17,3 15,6 3 2 - - NO 1010,4 42 0,0
28.07.2020 21:00:00 17,7 15,3 3 2 8 4 NO 1010,7 50 0,0
28.07.2020 20:00:00 18,9 14,0 3 1 7 4 NNO 1011,1 50 0,0
28.07.2020 19:00:00 19,4 13,3 4 2 6 4 O 1011,6 48 0,0
28.07.2020 18:00:00 21,1 13,0 4 2 13 7 OZO 1011,9 50 0,0
28.07.2020 17:00:00 22,8 12,7 4 2 13 7 OZO 1012,3 48 0,0
28.07.2020 16:00:00 23,8 13,6 5 3 14 7 ZO 1012,8 46 0,0
28.07.2020 15:00:00 22,2 14,1 5 3 13 7 ZO 1013,3 39 0,0
28.07.2020 14:00:00 21,1 15,0 6 3 17 9 ZO 1013,8 45 0,0

tt = temperatuur
td = dauwpunt
ff = windsnelheid
fx = windstoten
dd = windrichting
ppp = luchtdruk
vv = zicht
rr = neerslag

Weerstations in de omgeving